Georgetown, DE

1:03 PM EDT on August 18, 2017 (GMT -0400)
Sussex County

Weather History for KGED - April, 2013

Change the Weather History Date:

Monday, April 29, 2013

  Actual Average Record
Temperature  
Mean Temperature 57 °F 58 °F  
Max Temperature 59 °F 69 °F 91 °F (2017)
Min Temperature 54 °F 47 °F 28 °F (1949)
Degree Days  
Heating Degree Days 8 8  
Month to date heating degree days 293 340  
Since 1 July heating degree days 4005 4252  
Cooling Degree Days 0 1  
Month to date cooling degree days 31 19  
Year to date cooling degree days 31 21  
Growing Degree Days 7 (Base 50)    
Moisture  
Dew Point 54 °F    
Average Humidity 90    
Maximum Humidity 93    
Minimum Humidity 86    
Precipitation  
Precipitation 1.16 in 0.10 in 1.16 in (2013)
Month to date precipitation 3.72 3.55  
Year to date precipitation 12.27 13.31  
Sea Level Pressure  
Sea Level Pressure 30.14 in    
Wind  
Wind Speed 11 mph (SE)    
Max Wind Speed 18 mph    
Max Gust Speed 24 mph    
Visibility 5 miles    
Events Rain    
T = Trace of Precipitation, MM = Missing Value Source: NWS Daily Summary

Daily Weather History Graph

Daily Weather History Graph

Search for Another Location

Airport or City:

Trip Planner

Search our weather history database for the weather conditions in past years. The results will help you decide how hot, cold, wet, or windy it might be!

Date:

Astronomy

Apr. 29, 2013 Rise Set
Actual Time 6:06 AM EDT 7:51 PM EDT
Civil Twilight 5:37 AM EDT 8:20 PM EDT
Nautical Twilight 5:03 AM EDT 8:55 PM EDT
Astronomical Twilight 4:26 AM EDT 9:32 PM EDT
Moon No Moon Rise 9:25 AM EDT (4/29)
Length of Visible Light 14h 42m
Length of Day
13h 45m
Waning Gibbous, 80% of the Moon is Illuminated
Apr 29
Waning Gibbous
May 2
Last Quarter
May 9
New
May 18
First Quarter
May 25
Full

Hourly Weather History & Observations

Time (EDT) Temp. Dew Point Humidity Pressure Visibility Wind Dir Wind Speed Gust Speed Precip Events Conditions
12:54 AM 55.0 °F 48.9 °F 80% 30.20 in 10.0 mi ESE 4.6 mph - 0.00 in Rain Light Rain
1:54 AM 55.0 °F 51.1 °F 86% 30.19 in 8.0 mi ESE 4.6 mph - 0.01 in Rain Light Rain
2:54 AM 55.0 °F 52.0 °F 89% 30.17 in 6.0 mi SE 5.8 mph - 0.04 in Rain Rain
3:03 AM 55.4 °F 51.8 °F 88% 30.17 in 5.0 mi ESE 6.9 mph - 0.01 in Rain Rain
3:17 AM 55.4 °F 51.8 °F 88% 30.17 in 5.0 mi SE 5.8 mph - 0.03 in Rain Rain
3:38 AM 55.4 °F 53.6 °F 94% 30.16 in 5.0 mi SE 6.9 mph - 0.08 in Rain Light Rain
3:54 AM 55.9 °F 53.1 °F 90% 30.16 in 5.0 mi SE 4.6 mph - 0.09 in Rain Light Rain
4:21 AM 55.4 °F 53.6 °F 94% 30.16 in 6.0 mi SE 10.4 mph - 0.01 in Rain Light Rain
4:29 AM 55.4 °F 53.6 °F 94% 30.16 in 7.0 mi SSE 6.9 mph - 0.02 in Rain Light Rain
4:42 AM 55.4 °F 53.6 °F 94% 30.16 in 4.0 mi SSE 5.8 mph - 0.04 in Rain Rain
4:54 AM 55.9 °F 54.0 °F 93% 30.16 in 5.0 mi ESE 5.8 mph - 0.06 in Rain Rain
5:29 AM 55.4 °F 53.6 °F 94% 30.16 in 4.0 mi ESE 5.8 mph - 0.05 in Rain Rain
5:54 AM 55.9 °F 54.0 °F 93% 30.16 in 5.0 mi ESE 4.6 mph - 0.08 in Rain Light Rain
6:23 AM 55.4 °F 53.6 °F 94% 30.16 in 5.0 mi ESE 5.8 mph - 0.04 in Rain Rain
6:54 AM 55.9 °F 54.0 °F 93% 30.17 in 4.0 mi ESE 6.9 mph - 0.08 in Rain Rain
7:54 AM 57.0 °F 55.0 °F 93% 30.17 in 5.0 mi SE 8.1 mph - 0.07 in Rain Light Rain
8:54 AM 57.9 °F 55.0 °F 90% 30.16 in 6.0 mi SE 12.7 mph - 0.03 in Rain Light Rain
9:54 AM 57.9 °F 55.9 °F 93% 30.16 in 9.0 mi SSE 11.5 mph 20.7 mph 0.01 in Rain Light Rain
10:54 AM 57.9 °F 55.0 °F 90% 30.15 in 7.0 mi SSE 11.5 mph - 0.01 in Rain Light Rain
11:22 AM 59.0 °F 55.4 °F 88% 30.16 in 8.0 mi SSE 10.4 mph - 0.01 in Rain Light Rain
11:38 AM 59.0 °F 55.4 °F 88% 30.15 in 7.0 mi SSE 11.5 mph - 0.02 in Rain Light Rain
11:54 AM 59.0 °F 55.9 °F 90% 30.15 in 5.0 mi SSE 10.4 mph - 0.03 in Rain Light Rain
12:47 PM 59.0 °F 55.4 °F 88% 30.14 in 6.0 mi SE 13.8 mph 18.4 mph 0.04 in Rain Light Rain
12:54 PM 59.0 °F 55.9 °F 90% 30.14 in 7.0 mi SSE 13.8 mph - 0.04 in Rain Light Rain
1:15 PM 59.0 °F 55.4 °F 88% 30.14 in 6.0 mi SSE 12.7 mph - 0.01 in Rain Light Rain
1:32 PM 57.2 °F 55.4 °F 94% 30.14 in 5.0 mi SSE 13.8 mph - 0.03 in Rain Light Rain
1:51 PM 57.2 °F 55.4 °F 94% 30.13 in 5.0 mi SE 11.5 mph - 0.04 in Rain Light Rain
1:54 PM 57.9 °F 55.0 °F 90% 30.13 in 5.0 mi SSE 11.5 mph - 0.05 in Rain Light Rain
2:19 PM 57.2 °F 55.4 °F 94% 30.13 in 6.0 mi SE 13.8 mph - 0.03 in Rain Light Rain
2:54 PM 59.0 °F 55.9 °F 90% 30.12 in 6.0 mi SSE 15.0 mph - 0.07 in Rain Light Rain
3:13 PM 57.2 °F 55.4 °F 94% 30.12 in 5.0 mi SE 11.5 mph - 0.00 in   Mist
3:43 PM 57.2 °F 55.4 °F 94% 30.11 in 8.0 mi SE 9.2 mph - 0.02 in Rain Light Rain
3:54 PM 57.9 °F 55.0 °F 90% 30.11 in 7.0 mi SE 9.2 mph - 0.03 in Rain Light Rain
4:12 PM 57.2 °F 55.4 °F 94% 30.11 in 5.0 mi North - - 0.01 in Rain Light Rain
4:44 PM 57.2 °F 55.4 °F 94% 30.11 in 4.0 mi SSE 9.2 mph - 0.05 in Rain Rain
4:54 PM 57.0 °F 55.0 °F 93% 30.11 in 3.0 mi SE 10.4 mph - 0.07 in Rain Light Rain
5:44 PM 55.4 °F 53.6 °F 94% 30.11 in 3.0 mi SE 8.1 mph - 0.04 in Rain Light Rain
5:54 PM 55.9 °F 54.0 °F 93% 30.11 in 3.0 mi SE 8.1 mph - 0.05 in Rain Light Rain
6:54 PM 55.9 °F 54.0 °F 93% 30.11 in 3.0 mi SE 11.5 mph - 0.06 in Rain Rain
7:32 PM 55.4 °F 53.6 °F 94% 30.11 in 1.8 mi ESE 12.7 mph - 0.09 in Rain Heavy Rain
7:45 PM 55.4 °F 53.6 °F 94% 30.11 in 2.0 mi SE 12.7 mph - 0.13 in Rain Rain
7:54 PM 55.0 °F 53.1 °F 93% 30.11 in 3.0 mi SE 11.5 mph 19.6 mph 0.14 in Rain Rain
8:18 PM 55.4 °F 51.8 °F 88% 30.11 in 5.0 mi SE 10.4 mph - 0.02 in Rain Light Rain
8:39 PM 55.4 °F 51.8 °F 88% 30.12 in 4.0 mi SE 12.7 mph 21.9 mph 0.02 in Rain Light Rain
8:51 PM 55.4 °F 51.8 °F 88% 30.12 in 2.5 mi SE 12.7 mph - 0.05 in Rain Light Rain
8:54 PM 55.0 °F 52.0 °F 89% 30.12 in 2.5 mi SE 13.8 mph - 0.05 in Rain Light Rain
9:01 PM 55.4 °F 51.8 °F 88% 30.12 in 4.0 mi SE 12.7 mph 19.6 mph 0.00 in Rain Light Rain
9:09 PM 55.4 °F 51.8 °F 88% 30.12 in 5.0 mi SE 17.3 mph 23.0 mph 0.01 in Rain Light Rain
9:38 PM 55.4 °F 53.6 °F 94% 30.12 in 4.0 mi ESE 13.8 mph 20.7 mph 0.02 in Rain Light Rain
9:45 PM 55.4 °F 53.6 °F 94% 30.12 in 4.0 mi ESE 11.5 mph 19.6 mph 0.02 in Rain Light Rain
9:54 PM 55.9 °F 53.1 °F 90% 30.12 in 3.0 mi ESE 15.0 mph - 0.03 in Rain Light Rain
10:03 PM 55.4 °F 53.6 °F 94% 30.13 in 2.5 mi ESE 13.8 mph 19.6 mph 0.01 in Rain Light Rain
10:13 PM 55.4 °F 53.6 °F 94% 30.13 in 3.0 mi ESE 17.3 mph 24.2 mph 0.01 in Rain Light Rain
10:54 PM 55.9 °F - N/A% 30.12 in 4.0 mi ESE 15.0 mph 24.2 mph 0.02 in Rain Light Rain
11:54 PM 55.9 °F - N/A% 30.12 in 3.0 mi East 15.0 mph - 0.01 in Rain Light Rain